| time (UTC) | temp F | wind direction | speed MPH | gust MPH | rain 1hr in | rain 24hr in | rain mn in | humidity % | barometer mb |
| 20260904161521 | 68 | 81 | 0.0 | 1.0 | 0.00 | 0.01 | 0.01 | 1 | 1005.2 |
| 20260904160018 | 67 | 59 | 0.0 | 1.0 | 0.00 | 0.01 | 0.01 | 1 | 1005.2 |
| 20260904154517 | 67 | 49 | 0.0 | 0.0 | 0.00 | 0.01 | 0.01 | 1 | 1005.1 |
| 20260904153009 | 66 | 50 | 0.0 | 5.0 | 0.00 | 0.01 | 0.01 | 1 | 1004.9 |
| 20260904151508 | 65 | 31 | 2.0 | 7.0 | 0.00 | 0.01 | 0.01 | 1 | 1004.7 |
| 20260904150100 | 64 | 33 | 3.0 | 8.0 | 0.00 | 0.01 | 0.01 | 1 | 1004.7 |
| 20260904144610 | 63 | 360 | 3.0 | 7.0 | 0.00 | 0.01 | 0.01 | 1 | 1004.7 |
| 20260904143114 | 63 | 33 | 4.0 | 8.0 | 0.00 | 0.01 | 0.01 | 1 | 1004.6 |
| 20260904141549 | 62 | 26 | 4.0 | 9.0 | 0.00 | 0.01 | 0.01 | 1 | 1004.5 |
| 20260904140045 | 62 | 38 | 5.0 | 8.0 | 0.00 | 0.01 | 0.01 | 1 | 1004.3 |
| 20260904133038 | 62 | 21 | 5.0 | 11.0 | 0.01 | 0.01 | 0.01 | 1 | 1004.0 |
| 20260904131531 | 61 | 34 | 5.0 | 9.0 | 0.01 | 0.01 | 0.01 | 1 | 1004.1 |
| 20260904130027 | 61 | 25 | 4.0 | 10.0 | 0.01 | 0.01 | 0.01 | 1 | 1004.1 |
| 20260904124522 | 61 | 31 | 5.0 | 7.0 | 0.01 | 0.01 | 0.01 | 1 | 1004.0 |
| 20260904123019 | 60 | 17 | 4.0 | 7.0 | 0.00 | 0.00 | 0.00 | 1 | 1003.9 |
| 20260904121514 | 60 | 354 | 3.0 | 8.0 | 0.00 | 0.00 | 0.00 | 1 | 1003.7 |
| 20260904120014 | 60 | 358 | 6.0 | 9.0 | 0.00 | 0.00 | 0.00 | 1 | 1003.5 |
| 20260904114505 | 60 | 358 | 4.0 | 7.0 | 0.00 | 0.00 | 0.00 | 1 | 1003.5 |
| 20260904113101 | 60 | 351 | 2.0 | 6.0 | 0.00 | 0.00 | 0.00 | 1 | 1003.5 |
| 20260904111556 | 59 | 353 | 5.0 | 8.0 | 0.00 | 0.00 | 0.00 | 1 | 1003.4 |
| 20260904110051 | 58 | 351 | 4.0 | 6.0 | 0.00 | 0.00 | 0.00 | 1 | 1003.3 |
| 20260904104546 | 58 | 341 | 3.0 | 6.0 | 0.00 | 0.00 | 0.00 | 1 | 1003.2 |
| 20260904103044 | 58 | 327 | 2.0 | 4.0 | 0.00 | 0.00 | 0.00 | 1 | 1003.1 |
| 20260904101541 | 59 | 327 | 3.0 | 6.0 | 0.00 | 0.00 | 0.00 | 1 | 1002.9 |
| 20260904100034 | 59 | 345 | 3.0 | 6.0 | 0.00 | 0.00 | 0.00 | 1 | 1002.8 |
| 20260904094530 | 59 | 359 | 3.0 | 6.0 | 0.00 | 0.00 | 0.00 | 1 | 1002.6 |
| 20260904093025 | 59 | 334 | 2.0 | 5.0 | 0.00 | 0.00 | 0.00 | 1 | 1002.8 |
| 20260904091521 | 59 | 357 | 2.0 | 3.0 | 0.00 | 0.00 | 0.00 | 1 | 1002.8 |
| 20260904090022 | 58 | 339 | 1.0 | 4.0 | 0.00 | 0.00 | 0.00 | 1 | 1002.6 |
| 20260904084513 | 59 | 344 | 1.0 | 2.0 | 0.00 | 0.00 | 0.00 | 1 | 1002.7 |
| 20260904083008 | 59 | 345 | 0.0 | 0.0 | 0.00 | 0.00 | 0.00 | 1 | 1002.8 |
| 20260904081505 | 61 | 344 | 1.0 | 2.0 | 0.00 | 0.00 | 0.00 | 1 | 1002.3 |
| 20260904080118 | 61 | 345 | 0.0 | 2.0 | 0.00 | 0.00 | 0.00 | 1 | 1002.2 |
| 20260904074555 | 61 | 345 | 0.0 | 3.0 | 0.00 | 0.00 | 0.00 | 1 | 1002.3 |
| 20260904071546 | 63 | 20 | 2.0 | 5.0 | 0.00 | 0.00 | 0.00 | 1 | 1001.7 |
| 20260904070053 | 63 | 92 | 0.0 | 6.0 | 0.00 | 0.00 | 0.00 | 1 | 1002.0 |
| 20260904064537 | 64 | 31 | 5.0 | 10.0 | 0.00 | 0.00 | 0.00 | 1 | 1001.3 |
| 20260904063034 | 64 | 1 | 4.0 | 8.0 | 0.00 | 0.00 | 0.00 | 1 | 1001.3 |
| 20260904061529 | 64 | 31 | 3.0 | 6.0 | 0.00 | 0.00 | 0.00 | 1 | 1001.5 |
| 20260904060025 | 64 | 12 | 4.0 | 7.0 | 0.00 | 0.00 | 0.00 | 1 | 1001.5 |
| 20260904054530 | 64 | 346 | 4.0 | 7.0 | 0.00 | 0.00 | 0.00 | 1 | 1001.6 |
| 20260904053021 | 65 | 8 | 4.0 | 7.0 | 0.00 | 0.00 | 0.00 | 1 | 1001.4 |
| 20260904051512 | 65 | 352 | 4.0 | 6.0 | 0.00 | 0.00 | 0.00 | 1 | 1001.3 |
| 20260904050007 | 65 | 330 | 3.0 | 7.0 | 0.00 | 0.00 | 0.00 | 1 | 1001.2 |
| 20260904044503 | 65 | 341 | 4.0 | 7.0 | 0.00 | 0.00 | 0.00 | 1 | 1000.9 |
| 20260904043102 | 64 | 343 | 3.0 | 6.0 | 0.00 | 0.00 | 0.00 | 1 | 1000.9 |
| 20260904041553 | 64 | 304 | 2.0 | 5.0 | 0.00 | 0.00 | 0.00 | 1 | 1000.5 |
| 20260904040051 | 64 | 291 | 1.0 | 3.0 | 0.00 | 0.00 | 0.00 | 1 | 1000.4 |
| 20260904034545 | 65 | 290 | 1.0 | 3.0 | 0.00 | 0.00 | 0.00 | 1 | 1000.3 |
| 20260904033041 | 66 | 291 | 1.0 | 4.0 | 0.00 | 0.00 | 0.00 | 1 | 1000.1 |
| 20260904031536 | 66 | 291 | 3.0 | 4.0 | 0.00 | 0.00 | 0.00 | 1 | 1000.0 |
| 20260904030050 | 67 | 313 | 1.0 | 3.0 | 0.00 | 0.00 | 0.00 | 4 | 999.7 |
| 20260904024528 | 68 | 316 | 1.0 | 3.0 | 0.00 | 0.00 | 0.00 | 12 | 999.7 |
| 20260904023023 | 69 | 327 | 1.0 | 3.0 | 0.00 | 0.00 | 0.00 | 25 | 999.5 |
| 20260904021528 | 70 | 355 | 0.0 | 2.0 | 0.00 | 0.00 | 0.00 | 38 | 999.4 |
| 20260904020016 | 71 | 351 | 2.0 | 4.0 | 0.00 | 0.00 | 0.00 | 49 | 999.2 |
| 20260904014513 | 72 | 348 | 3.0 | 5.0 | 0.00 | 0.01 | 0.00 | 58 | 998.9 |
| 20260904013006 | 74 | 6 | 4.0 | 8.0 | 0.00 | 0.01 | 0.00 | 66 | 998.6 |
| 20260904011502 | 76 | 2 | 5.0 | 11.0 | 0.00 | 0.01 | 0.00 | 70 | 998.3 |
| 20260904010058 | 77 | 2 | 7.0 | 13.0 | 0.00 | 0.01 | 0.00 | 70 | 998.1 |
| 20260904004553 | 79 | 346 | 10.0 | 16.0 | 0.00 | 0.01 | 0.00 | 68 | 997.9 |
| 20260904003043 | 81 | 353 | 9.0 | 15.0 | 0.00 | 0.01 | 0.00 | 66 | 997.6 |
| 20260904001539 | 83 | 342 | 8.0 | 14.0 | 0.00 | 0.01 | 0.00 | 65 | 997.3 |
| 20260904000034 | 84 | 328 | 9.0 | 13.0 | 0.00 | 0.01 | 0.00 | 64 | 997.2 |
| 20260903234529 | 85 | 336 | 10.0 | 19.0 | 0.00 | 0.01 | 0.00 | 61 | 996.9 |
| 20260903233034 | 88 | 343 | 13.0 | 18.0 | 0.00 | 0.01 | 0.00 | 57 | 996.7 |
| 20260903231535 | 90 | 354 | 10.0 | 15.0 | 0.00 | 0.01 | 0.00 | 53 | 996.3 |
| 20260903230016 | 92 | 347 | 10.0 | 15.0 | 0.00 | 0.01 | 0.00 | 48 | 996.1 |
| 20260903224511 | 95 | 308 | 8.0 | 16.0 | 0.00 | 0.01 | 0.00 | 37 | 995.9 |
| 20260903223010 | 95 | 332 | 8.0 | 13.0 | 0.00 | 0.01 | 0.00 | 34 | 995.7 |
| 20260903221503 | 96 | 302 | 10.0 | 16.0 | 0.00 | 0.01 | 0.00 | 34 | 995.7 |
| 20260903220059 | 97 | 280 | 8.0 | 13.0 | 0.00 | 0.01 | 0.00 | 27 | 995.5 |
| 20260903214604 | 97 | 273 | 4.0 | 11.0 | 0.00 | 0.01 | 0.00 | 28 | 995.5 |
| 20260903213052 | 98 | 275 | 6.0 | 13.0 | 0.00 | 0.01 | 0.00 | 29 | 995.4 |
| 20260903211551 | 97 | 282 | 6.0 | 12.0 | 0.00 | 0.01 | 0.00 | 29 | 995.4 |
| 20260903210053 | 97 | 221 | 5.0 | 15.0 | 0.00 | 0.01 | 0.00 | 29 | 995.4 |
| 20260903204540 | 96 | 250 | 5.0 | 12.0 | 0.00 | 0.01 | 0.00 | 33 | 995.2 |
| 20260903203034 | 96 | 183 | 11.0 | 18.0 | 0.00 | 0.01 | 0.00 | 37 | 995.2 |
| 20260903201533 | 95 | 274 | 6.0 | 11.0 | 0.00 | 0.01 | 0.00 | 40 | 995.4 |
| 20260903200023 | 95 | 289 | 6.0 | 15.0 | 0.00 | 0.01 | 0.00 | 39 | 995.4 |
| 20260903194525 | 94 | 138 | 8.0 | 17.0 | 0.00 | 0.02 | 0.00 | 43 | 995.3 |
| 20260903193017 | 94 | 219 | 6.0 | 0.0 | 0.00 | 0.00 | 0.00 | 43 | 995.3 |
| 20260903191523 | 93 | 176 | 6.0 | 16.0 | 0.00 | 0.02 | 0.00 | 43 | 995.2 |
| 20260903190006 | 93 | 151 | 10.0 | 17.0 | 0.00 | 0.02 | 0.00 | 45 | 995.2 |
| 20260903184501 | 92 | 190 | 6.0 | 17.0 | 0.00 | 0.02 | 0.00 | 45 | 995.2 |
| 20260903183100 | 92 | 201 | 9.0 | 15.0 | 0.00 | 0.02 | 0.00 | 44 | 995.5 |
| 20260903181552 | 91 | 176 | 9.0 | 17.0 | 0.00 | 0.02 | 0.00 | 46 | 995.5 |
| 20260903180047 | 90 | 189 | 7.0 | 16.0 | 0.00 | 0.02 | 0.00 | 46 | 995.5 |
| 20260903174543 | 90 | 201 | 8.0 | 14.0 | 0.00 | 0.02 | 0.00 | 49 | 995.8 |
| 20260903173039 | 88 | 148 | 8.0 | 15.0 | 0.00 | 0.02 | 0.00 | 54 | 995.8 |
| 20260903171537 | 87 | 153 | 9.0 | 14.0 | 0.00 | 0.02 | 0.00 | 56 | 995.9 |
| 20260903170039 | 86 | 194 | 8.0 | 17.0 | 0.00 | 0.02 | 0.00 | 63 | 995.9 |
| 20260903164526 | 84 | 140 | 9.0 | 13.0 | 0.00 | 0.02 | 0.00 | 67 | 996.2 |
| 20260903163033 | 83 | 131 | 6.0 | 11.0 | 0.00 | 0.02 | 0.00 | 69 | 996.3 |